{"data":{"norad_id":62578,"epoch":"2026-05-25T03:41:34.425024Z","epoch_age_seconds":54992,"freshness":"FRESH","line1":"1 62578U 25007D   26145.15387066 -.00000042  00000+0  93658-4 0  9997","line2":"2 62578  54.9836  12.8423 0012615  38.6724 321.5133 13.80602481 71537","mean_motion":13.80602481,"eccentricity":0.0012615,"inclination_deg":54.9836,"raan_deg":12.8423,"arg_perigee_deg":38.6724,"mean_anomaly_deg":321.5133,"bstar":9.3658e-5,"rev_number":7153,"period_min":104.30228974795,"perigee_km":952.49131428912,"apogee_km":971.00985065971,"semimajor_km":7339.8875824744,"source":"CELESTRAK","updated_at":"2026-05-25T13:38:03.090380Z"}}